EJA953 KTEB-KHVN

Flight info

Callsign EJA953
Flight time 0h 32m
Altitude 15000
Route BREZY V39 CMK T634 DENNA
Aircraft C750/M-SBDE3FGHRWXY/S

Departure

Time 2026-05-06 17:34
Airport Teterboro Airport (KTEB)

Arrival

Time 2026-05-06 18:06
Airport Tweed New Haven Airport (KHVN)
Time Latitude Longitude Altitude Speed Heading
2026-05-06 16:56 40.85402 -74.05532 15 ft 0 kts 99°
2026-05-06 17:28 40.85404 -74.05530 15 ft 0 kts 64°
2026-05-06 17:28 40.85408 -74.05532 14 ft 1 kts 341°
2026-05-06 17:28 40.85419 -74.05559 13 ft 0 kts 296°
2026-05-06 17:30 40.85420 -74.05560 13 ft 1 kts 296°
2026-05-06 17:30 40.85424 -74.05574 13 ft 4 kts 288°
2026-05-06 17:30 40.85442 -74.05633 14 ft 7 kts 316°
2026-05-06 17:31 40.85474 -74.05629 15 ft 4 kts 32°
2026-05-06 17:31 40.85490 -74.05612 15 ft 2 kts 43°
2026-05-06 17:31 40.85511 -74.05582 16 ft 7 kts 46°
2026-05-06 17:31 40.85554 -74.05519 19 ft 11 kts 50°
2026-05-06 17:32 40.85604 -74.05444 19 ft 11 kts 44°
2026-05-06 17:32 40.85657 -74.05368 16 ft 12 kts 53°
2026-05-06 17:32 40.85703 -74.05341 19 ft 5 kts 326°
2026-05-06 17:32 40.85727 -74.05382 19 ft 8 kts 291°
2026-05-06 17:33 40.85741 -74.05448 16 ft 8 kts 253°
2026-05-06 17:33 40.85688 -74.05537 18 ft 29 kts 228°
2026-05-06 17:33 40.85288 -74.06126 14 ft 135 kts 229°
2026-05-06 17:33 40.84639 -74.07109 580 ft 147 kts 229°
2026-05-06 17:34 40.83965 -74.08177 1253 ft 162 kts 230°
2026-05-06 17:34 40.83142 -74.09434 1507 ft 213 kts 227°
2026-05-06 17:34 40.82133 -74.11180 1521 ft 267 kts 247°
2026-05-06 17:34 40.82159 -74.13437 1574 ft 241 kts 277°
2026-05-06 17:35 40.82039 -74.15516 1516 ft 217 kts 253°
2026-05-06 17:35 40.81630 -74.17360 1514 ft 204 kts 252°
2026-05-06 17:35 40.81384 -74.19164 1489 ft 198 kts 264°
2026-05-06 17:36 40.81471 -74.23142 1500 ft 227 kts 271°
2026-05-06 17:36 40.81516 -74.25226 1520 ft 228 kts 270°
2026-05-06 17:36 40.81547 -74.27424 1640 ft 257 kts 269°
2026-05-06 17:36 40.81536 -74.29779 2773 ft 257 kts 277°
2026-05-06 17:37 40.82380 -74.31861 4031 ft 265 kts 309°
2026-05-06 17:37 40.83884 -74.33221 5028 ft 254 kts 330°
2026-05-06 17:37 40.85704 -74.33529 5032 ft 292 kts
2026-05-06 17:37 40.87652 -74.32605 5912 ft 303 kts 25°
2026-05-06 17:38 40.89525 -74.31264 7135 ft 304 kts 26°
2026-05-06 17:38 40.91403 -74.29966 8174 ft 312 kts 25°
2026-05-06 17:38 40.93372 -74.28669 9268 ft 319 kts 24°
2026-05-06 17:38 40.95382 -74.27332 10240 ft 330 kts 25°
2026-05-06 17:39 40.97497 -74.25910 10682 ft 354 kts 25°
2026-05-06 17:39 40.99773 -74.24367 10915 ft 381 kts 25°
2026-05-06 17:39 41.02210 -74.22707 11226 ft 400 kts 25°
2026-05-06 17:39 41.04692 -74.21027 12033 ft 402 kts 25°
2026-05-06 17:40 41.07208 -74.19339 12701 ft 409 kts 25°
2026-05-06 17:40 41.09760 -74.17609 13353 ft 415 kts 24°
2026-05-06 17:40 41.12311 -74.15789 14033 ft 421 kts 30°
2026-05-06 17:40 41.14551 -74.13252 14704 ft 426 kts 46°
2026-05-06 17:41 41.16301 -74.10079 14964 ft 440 kts 62°
2026-05-06 17:41 41.17467 -74.06213 14982 ft 451 kts 76°
2026-05-06 17:41 41.18354 -74.02153 14995 ft 466 kts 77°
2026-05-06 17:41 41.19251 -73.97984 14994 ft 471 kts 77°
2026-05-06 17:42 41.20165 -73.93887 14993 ft 471 kts 76°
2026-05-06 17:42 41.21110 -73.89695 14995 ft 474 kts 77°
2026-05-06 17:42 41.22037 -73.85474 14993 ft 475 kts 77°
2026-05-06 17:42 41.22946 -73.81255 14986 ft 474 kts 77°
2026-05-06 17:43 41.23875 -73.77035 14987 ft 476 kts 77°
2026-05-06 17:43 41.24808 -73.72819 14982 ft 477 kts 77°
2026-05-06 17:43 41.25734 -73.68575 14991 ft 477 kts 77°
2026-05-06 17:43 41.26651 -73.64350 14994 ft 475 kts 77°
2026-05-06 17:44 41.27354 -73.60078 14985 ft 470 kts 86°
2026-05-06 17:44 41.27532 -73.55751 14990 ft 467 kts 96°
2026-05-06 17:44 41.27216 -73.51483 14992 ft 460 kts 104°
2026-05-06 17:44 41.26702 -73.47347 14998 ft 459 kts 104°
2026-05-06 17:45 41.26201 -73.43150 15006 ft 458 kts 104°
2026-05-06 17:45 41.25710 -73.38948 15006 ft 459 kts 104°
2026-05-06 17:45 41.25203 -73.34746 15009 ft 460 kts 105°
2026-05-06 17:45 41.24689 -73.30579 15008 ft 445 kts 104°
2026-05-06 17:46 41.24373 -73.26658 14785 ft 416 kts 95°
2026-05-06 17:46 41.24655 -73.23024 14749 ft 370 kts 84°
2026-05-06 17:46 41.25408 -73.19917 14172 ft 352 kts 67°
2026-05-06 17:46 41.26775 -73.17203 13319 ft 356 kts 50°
2026-05-06 17:47 41.28710 -73.15175 12134 ft 356 kts 24°
2026-05-06 17:47 41.31095 -73.14484 10826 ft 329 kts 356°
2026-05-06 17:47 41.33180 -73.14780 9300 ft 291 kts 334°
2026-05-06 17:47 41.34826 -73.16145 7750 ft 278 kts 307°
2026-05-06 17:48 41.35768 -73.18288 6362 ft 258 kts 280°
2026-05-06 17:48 41.35824 -73.20589 4981 ft 241 kts 252°
2026-05-06 17:48 41.35029 -73.22408 3565 ft 226 kts 224°
2026-05-06 17:48 41.33595 -73.23280 3015 ft 225 kts 190°
2026-05-06 17:49 41.32131 -73.22820 2984 ft 221 kts 157°
2026-05-06 17:49 41.31029 -73.21271 3058 ft 241 kts 132°
2026-05-06 17:49 41.29992 -73.19510 3152 ft 239 kts 141°
2026-05-06 17:49 41.28757 -73.18025 3031 ft 243 kts 147°
2026-05-06 17:50 41.27472 -73.16559 3048 ft 240 kts 146°
2026-05-06 17:50 41.26207 -73.15132 3056 ft 238 kts 147°
2026-05-06 17:50 41.24872 -73.13917 2993 ft 227 kts 162°
2026-05-06 17:50 41.23435 -73.13127 2995 ft 222 kts 165°
2026-05-06 17:51 41.21978 -73.12324 2863 ft 227 kts 163°
2026-05-06 17:51 41.20533 -73.11555 3074 ft 229 kts 166°
2026-05-06 17:51 41.19029 -73.10836 3051 ft 230 kts 167°
2026-05-06 17:51 41.17536 -73.10138 2857 ft 224 kts 167°
2026-05-06 17:52 41.16016 -73.09442 2167 ft 241 kts 166°
2026-05-06 17:52 41.14439 -73.08795 2025 ft 231 kts 167°
2026-05-06 17:52 41.12952 -73.08207 2026 ft 214 kts 167°
2026-05-06 17:52 41.11678 -73.07381 1945 ft 208 kts 141°
2026-05-06 17:53 41.11131 -73.05568 1909 ft 224 kts 96°
2026-05-06 17:53 41.11583 -73.03559 1966 ft 232 kts 68°
2026-05-06 17:53 41.12304 -73.01626 2049 ft 237 kts 68°
2026-05-06 17:53 41.12854 -72.99610 2058 ft 232 kts 76°
2026-05-06 17:54 41.13319 -72.97547 2049 ft 232 kts 77°
2026-05-06 17:54 41.13791 -72.95496 2047 ft 232 kts 77°
2026-05-06 17:54 41.14715 -72.93734 1968 ft 236 kts 39°
2026-05-06 17:54 41.16107 -72.92697 2048 ft 236 kts 26°
2026-05-06 17:55 41.17560 -72.91703 2048 ft 234 kts 27°
2026-05-06 17:55 41.19010 -72.90690 2047 ft 235 kts 28°
2026-05-06 17:55 41.20353 -72.89489 2042 ft 224 kts 36°
2026-05-06 17:55 41.21674 -72.88807 1866 ft 189 kts 357°
2026-05-06 17:56 41.22937 -72.88999 1815 ft 185 kts 356°
2026-05-06 17:56 41.24225 -72.88911 1931 ft 187 kts
2026-05-06 17:56 41.25532 -72.88831 2045 ft 191 kts 359°
2026-05-06 17:56 41.26839 -72.88744 2047 ft 191 kts
2026-05-06 17:57 41.28182 -72.88618 2043 ft 191 kts
2026-05-06 17:57 41.29526 -72.88466 2051 ft 194 kts
2026-05-06 17:57 41.30767 -72.87913 1957 ft 195 kts 40°
2026-05-06 17:57 41.31305 -72.86255 1970 ft 215 kts 92°
2026-05-06 17:58 41.30755 -72.84456 2014 ft 211 kts 136°
2026-05-06 17:58 41.29615 -72.83232 2086 ft 212 kts 147°
2026-05-06 17:58 41.28437 -72.82058 2066 ft 211 kts 147°
2026-05-06 17:58 41.27266 -72.80875 2052 ft 212 kts 147°
2026-05-06 17:59 41.26090 -72.79683 2049 ft 213 kts 147°
2026-05-06 17:59 41.24812 -72.78759 2030 ft 207 kts 164°
2026-05-06 17:59 41.23433 -72.78205 2036 ft 207 kts 167°
2026-05-06 17:59 41.22050 -72.77657 2041 ft 208 kts 167°
2026-05-06 18:00 41.20667 -72.77104 2042 ft 208 kts 167°
2026-05-06 18:00 41.19284 -72.76548 2043 ft 207 kts 167°
2026-05-06 18:00 41.17901 -72.75995 2043 ft 207 kts 167°
2026-05-06 18:00 41.16514 -72.75441 2042 ft 208 kts 167°
2026-05-06 18:01 41.15129 -72.74925 2013 ft 206 kts 173°
2026-05-06 18:01 41.13798 -72.75395 1973 ft 201 kts 217°
2026-05-06 18:01 41.13128 -72.76987 2010 ft 204 kts 253°
2026-05-06 18:01 41.12872 -72.78854 2068 ft 205 kts 257°
2026-05-06 18:02 41.12625 -72.80708 2062 ft 205 kts 257°
2026-05-06 18:02 41.12374 -72.82577 2058 ft 206 kts 257°
2026-05-06 18:02 41.12131 -72.84415 2053 ft 204 kts 257°
2026-05-06 18:02 41.11924 -72.86277 2026 ft 208 kts 265°
2026-05-06 18:03 41.12490 -72.88121 1950 ft 226 kts 308°
2026-05-06 18:03 41.13792 -72.88999 1961 ft 199 kts 345°
2026-05-06 18:03 41.15097 -72.89386 2001 ft 192 kts 345°
2026-05-06 18:03 41.16467 -72.89455 1804 ft 197 kts
2026-05-06 18:04 41.17787 -72.89353 1544 ft 180 kts
2026-05-06 18:04 41.18931 -72.89275 1320 ft 153 kts
2026-05-06 18:04 41.19951 -72.89206 1116 ft 140 kts
2026-05-06 18:04 41.20911 -72.89141 946 ft 138 kts
2026-05-06 18:05 41.21855 -72.89078 766 ft 130 kts
2026-05-06 18:05 41.22744 -72.89001 576 ft 127 kts
2026-05-06 18:05 41.23637 -72.88937 441 ft 129 kts
2026-05-06 18:05 41.24528 -72.88914 274 ft 127 kts
2026-05-06 18:06 41.25400 -72.88845 98 ft 127 kts
2026-05-06 18:06 41.26234 -72.88783 15 ft 106 kts
2026-05-06 18:06 41.26753 -72.88753 11 ft 54 kts
2026-05-06 18:06 41.27038 -72.88729 13 ft 25 kts
2026-05-06 18:07 41.27115 -72.88642 13 ft 12 kts 117°
2026-05-06 18:07 41.27041 -72.88626 13 ft 12 kts 183°
2026-05-06 18:07 41.26980 -72.88629 13 ft 4 kts 175°
2026-05-06 18:07 41.26979 -72.88629 13 ft 0 kts 175°
2026-05-06 18:08 41.26964 -72.88622 13 ft 6 kts 152°
2026-05-06 18:08 41.26930 -72.88591 13 ft 12 kts 166°
2026-05-06 18:09 41.26844 -72.88571 13 ft 6 kts 96°
2026-05-06 18:09 41.26838 -72.88524 13 ft 9 kts 118°
2026-05-06 18:09 41.26802 -72.88468 13 ft 7 kts 152°
2026-05-06 18:09 41.26760 -72.88463 13 ft 5 kts 171°
2026-05-06 18:10 41.26741 -72.88436 13 ft 3 kts 120°
2026-05-06 18:10 41.26732 -72.88392 13 ft 5 kts 70°
2026-05-06 18:10 41.26751 -72.88368 13 ft 3 kts 34°
2026-05-06 18:10 41.26765 -72.88355 13 ft 2 kts 34°
2026-05-06 18:11 41.26771 -72.88350 13 ft 0 kts 33°